owner,sensor,date,latitude,longitude,vertical_datum,sea_water_temperature,qcFlag 
DISL,ioos:station:DISL:DISL:1,2012-04-01T00:00:00Z,30.2513,-88.0778,-1.72,25.01,2 
DISL,ioos:station:DISL:DISL:1,2012-04-01T00:30:00Z,30.2513,-88.0778,-1.72,24.96,2 
DISL,ioos:station:DISL:DISL:1,2012-04-01T01:00:00Z,30.2513,-88.0778,-1.72,24.9,2 
DISL,ioos:station:DISL:DISL:1,2012-04-01T01:30:00Z,30.2513,-88.0778,-1.72,24.85,2 
DISL,ioos:station:DISL:DISL:1,2012-04-01T02:00:00Z,30.2513,-88.0778,-1.72,24.75,2 
DISL,ioos:station:DISL:DISL:1,2012-04-01T02:30:00Z,30.2513,-88.0778,-1.72,24.67,2 
DISL,ioos:station:DISL:DISL:1,2012-04-01T03:00:00Z,30.2513,-88.0778,-1.72,24.58,2 
DISL,ioos:station:DISL:DISL:1,2012-04-01T03:30:00Z,30.2513,-88.0778,-1.72,24.52,2 
DISL,ioos:station:DISL:DISL:1,2012-04-01T04:00:00Z,30.2513,-88.0778,-1.72,24.48,2 
DISL,ioos:station:DISL:DISL:1,2012-04-01T04:30:00Z,30.2513,-88.0778,-1.72,24.45,2 
DISL,ioos:station:DISL:DISL:1,2012-04-01T05:00:00Z,30.2513,-88.0778,-1.72,24.42,2 
DISL,ioos:station:DISL:DISL:1,2012-04-01T05:30:00Z,30.2513,-88.0778,-1.72,24.4,2 
DISL,ioos:station:DISL:DISL:1,2012-04-01T06:00:00Z,30.2513,-88.0778,-1.72,24.39,2 
DISL,ioos:station:DISL:DISL:1,2012-04-01T06:30:00Z,30.2513,-88.0778,-1.72,24.33,2 
DISL,ioos:station:DISL:DISL:1,2012-04-01T07:00:00Z,30.2513,-88.0778,-1.72,23.21,2 
DISL,ioos:station:DISL:DISL:1,2012-04-01T07:30:00Z,30.2513,-88.0778,-1.72,23.42,2 
DISL,ioos:station:DISL:DISL:1,2012-04-01T08:00:00Z,30.2513,-88.0778,-1.72,23.46,2 
DISL,ioos:station:DISL:DISL:1,2012-04-01T08:30:00Z,30.2513,-88.0778,-1.72,23.52,2 
DISL,ioos:station:DISL:DISL:1,2012-04-01T09:00:00Z,30.2513,-88.0778,-1.72,23.58,2 
DISL,ioos:station:DISL:DISL:1,2012-04-01T09:30:00Z,30.2513,-88.0778,-1.72,23.62,2 
DISL,ioos:station:DISL:DISL:1,2012-04-01T10:00:00Z,30.2513,-88.0778,-1.72,23.54,2 
DISL,ioos:station:DISL:DISL:1,2012-04-01T10:30:00Z,30.2513,-88.0778,-1.72,23.5,2 
DISL,ioos:station:DISL:DISL:1,2012-04-01T11:00:00Z,30.2513,-88.0778,-1.72,23.4,2 
DISL,ioos:station:DISL:DISL:1,2012-04-01T11:30:00Z,30.2513,-88.0778,-1.72,23.41,2 
DISL,ioos:station:DISL:DISL:1,2012-04-01T12:00:00Z,30.2513,-88.0778,-1.72,23.37,2 
DISL,ioos:station:DISL:DISL:1,2012-04-01T12:30:00Z,30.2513,-88.0778,-1.72,23.39,2 
DISL,ioos:station:DISL:DISL:1,2012-04-01T13:00:00Z,30.2513,-88.0778,-1.72,23.39,2 
DISL,ioos:station:DISL:DISL:1,2012-04-01T13:30:00Z,30.2513,-88.0778,-1.72,23.38,2 
DISL,ioos:station:DISL:DISL:1,2012-04-01T14:00:00Z,30.2513,-88.0778,-1.72,23.35,2 
DISL,ioos:station:DISL:DISL:1,2012-04-01T14:30:00Z,30.2513,-88.0778,-1.72,23.38,2 
DISL,ioos:station:DISL:DISL:1,2012-04-01T15:00:00Z,30.2513,-88.0778,-1.72,23.39,2 
DISL,ioos:station:DISL:DISL:1,2012-04-01T15:30:00Z,30.2513,-88.0778,-1.72,23.47,2 
DISL,ioos:station:DISL:DISL:1,2012-04-01T16:00:00Z,30.2513,-88.0778,-1.72,23.48,2 
DISL,ioos:station:DISL:DISL:1,2012-04-01T16:30:00Z,30.2513,-88.0778,-1.72,23.78,2 
DISL,ioos:station:DISL:DISL:1,2012-04-01T17:00:00Z,30.2513,-88.0778,-1.72,23.94,2 
DISL,ioos:station:DISL:DISL:1,2012-04-01T17:30:00Z,30.2513,-88.0778,-1.72,24.42,2 
DISL,ioos:station:DISL:DISL:1,2012-04-01T18:00:00Z,30.2513,-88.0778,-1.72,24.78,2 
DISL,ioos:station:DISL:DISL:1,2012-04-01T18:30:00Z,30.2513,-88.0778,-1.72,25.26,2 
DISL,ioos:station:DISL:DISL:1,2012-04-01T19:00:00Z,30.2513,-88.0778,-1.72,25.65,2 
DISL,ioos:station:DISL:DISL:1,2012-04-01T19:30:00Z,30.2513,-88.0778,-1.72,25.75,2 
DISL,ioos:station:DISL:DISL:1,2012-04-01T20:00:00Z,30.2513,-88.0778,-1.72,26.03,2 
DISL,ioos:station:DISL:DISL:1,2012-04-01T20:30:00Z,30.2513,-88.0778,-1.72,25.91,2 
DISL,ioos:station:DISL:DISL:1,2012-04-01T21:00:00Z,30.2513,-88.0778,-1.72,26.03,2 
DISL,ioos:station:DISL:DISL:1,2012-04-01T21:30:00Z,30.2513,-88.0778,-1.72,25.63,2 
DISL,ioos:station:DISL:DISL:1,2012-04-01T22:00:00Z,30.2513,-88.0778,-1.72,26.22,2 
DISL,ioos:station:DISL:DISL:1,2012-04-01T22:30:00Z,30.2513,-88.0778,-1.72,26.27,2 
DISL,ioos:station:DISL:DISL:1,2012-04-01T23:00:00Z,30.2513,-88.0778,-1.72,26.47,2 
DISL,ioos:station:DISL:DISL:1,2012-04-01T23:30:00Z,30.2513,-88.0778,-1.72,26.49,2 
DISL,ioos:station:DISL:DISL:1,2012-04-02T00:00:00Z,30.2513,-88.0778,-1.72,26.56,2 
DISL,ioos:station:DISL:DISL:1,2012-04-02T00:30:00Z,30.2513,-88.0778,-1.72,26.38,2 
DISL,ioos:station:DISL:DISL:1,2012-04-02T01:00:00Z,30.2513,-88.0778,-1.72,26.3,2 
DISL,ioos:station:DISL:DISL:1,2012-04-02T01:30:00Z,30.2513,-88.0778,-1.72,26.15,2 
DISL,ioos:station:DISL:DISL:1,2012-04-02T02:00:00Z,30.2513,-88.0778,-1.72,26.11,2 
DISL,ioos:station:DISL:DISL:1,2012-04-02T02:30:00Z,30.2513,-88.0778,-1.72,26.02,2 
DISL,ioos:station:DISL:DISL:1,2012-04-02T03:00:00Z,30.2513,-88.0778,-1.72,25.93,2 
DISL,ioos:station:DISL:DISL:1,2012-04-02T03:30:00Z,30.2513,-88.0778,-1.72,25.85,2 
DISL,ioos:station:DISL:DISL:1,2012-04-02T04:00:00Z,30.2513,-88.0778,-1.72,25.76,2 
DISL,ioos:station:DISL:DISL:1,2012-04-02T04:30:00Z,30.2513,-88.0778,-1.72,25.68,2 
DISL,ioos:station:DISL:DISL:1,2012-04-02T05:00:00Z,30.2513,-88.0778,-1.72,25.19,2 
DISL,ioos:station:DISL:DISL:1,2012-04-02T05:30:00Z,30.2513,-88.0778,-1.72,25.15,2 
DISL,ioos:station:DISL:DISL:1,2012-04-02T06:00:00Z,30.2513,-88.0778,-1.72,24.64,2 
DISL,ioos:station:DISL:DISL:1,2012-04-02T06:30:00Z,30.2513,-88.0778,-1.72,23.92,2 
DISL,ioos:station:DISL:DISL:1,2012-04-02T07:00:00Z,30.2513,-88.0778,-1.72,23.84,2 
DISL,ioos:station:DISL:DISL:1,2012-04-02T07:30:00Z,30.2513,-88.0778,-1.72,23.7,2 
DISL,ioos:station:DISL:DISL:1,2012-04-02T08:00:00Z,30.2513,-88.0778,-1.72,23.79,2 
DISL,ioos:station:DISL:DISL:1,2012-04-02T08:30:00Z,30.2513,-88.0778,-1.72,23.88,2 
DISL,ioos:station:DISL:DISL:1,2012-04-02T09:00:00Z,30.2513,-88.0778,-1.72,24.05,2 
DISL,ioos:station:DISL:DISL:1,2012-04-02T09:30:00Z,30.2513,-88.0778,-1.72,24.26,2 
DISL,ioos:station:DISL:DISL:1,2012-04-02T10:00:00Z,30.2513,-88.0778,-1.72,24.1,2 
DISL,ioos:station:DISL:DISL:1,2012-04-02T10:30:00Z,30.2513,-88.0778,-1.72,24.18,2 
DISL,ioos:station:DISL:DISL:1,2012-04-02T11:00:00Z,30.2513,-88.0778,-1.72,24.33,2 
DISL,ioos:station:DISL:DISL:1,2012-04-02T11:30:00Z,30.2513,-88.0778,-1.72,24.19,2 
DISL,ioos:station:DISL:DISL:1,2012-04-02T12:00:00Z,30.2513,-88.0778,-1.72,24.27,2 
DISL,ioos:station:DISL:DISL:1,2012-04-02T12:30:00Z,30.2513,-88.0778,-1.72,24.44,2 
DISL,ioos:station:DISL:DISL:1,2012-04-02T13:00:00Z,30.2513,-88.0778,-1.72,24.42,2 
DISL,ioos:station:DISL:DISL:1,2012-04-02T13:30:00Z,30.2513,-88.0778,-1.72,24.35,2 
DISL,ioos:station:DISL:DISL:1,2012-04-02T14:00:00Z,30.2513,-88.0778,-1.72,24.44,2 
DISL,ioos:station:DISL:DISL:1,2012-04-02T14:30:00Z,30.2513,-88.0778,-1.72,24.5,2 
DISL,ioos:station:DISL:DISL:1,2012-04-02T15:00:00Z,30.2513,-88.0778,-1.72,24.52,2 
DISL,ioos:station:DISL:DISL:1,2012-04-02T15:30:00Z,30.2513,-88.0778,-1.72,24.6,2 
DISL,ioos:station:DISL:DISL:1,2012-04-02T16:00:00Z,30.2513,-88.0778,-1.72,24.64,2 
DISL,ioos:station:DISL:DISL:1,2012-04-02T16:30:00Z,30.2513,-88.0778,-1.72,24.68,2 
DISL,ioos:station:DISL:DISL:1,2012-04-02T17:00:00Z,30.2513,-88.0778,-1.72,24.89,2 
DISL,ioos:station:DISL:DISL:1,2012-04-02T17:30:00Z,30.2513,-88.0778,-1.72,25.06,2 
DISL,ioos:station:DISL:DISL:1,2012-04-02T18:00:00Z,30.2513,-88.0778,-1.72,25.03,2 
DISL,ioos:station:DISL:DISL:1,2012-04-02T18:30:00Z,30.2513,-88.0778,-1.72,25.12,2 
DISL,ioos:station:DISL:DISL:1,2012-04-02T19:00:00Z,30.2513,-88.0778,-1.72,25.3,2 
DISL,ioos:station:DISL:DISL:1,2012-04-02T19:30:00Z,30.2513,-88.0778,-1.72,25.34,2 
DISL,ioos:station:DISL:DISL:1,2012-04-02T20:00:00Z,30.2513,-88.0778,-1.72,25.27,2 
DISL,ioos:station:DISL:DISL:1,2012-04-02T20:30:00Z,30.2513,-88.0778,-1.72,25.41,2 
DISL,ioos:station:DISL:DISL:1,2012-04-02T21:00:00Z,30.2513,-88.0778,-1.72,25.43,2 
DISL,ioos:station:DISL:DISL:1,2012-04-02T21:30:00Z,30.2513,-88.0778,-1.72,25.54,2 
DISL,ioos:station:DISL:DISL:1,2012-04-02T22:00:00Z,30.2513,-88.0778,-1.72,25.68,2 
DISL,ioos:station:DISL:DISL:1,2012-04-02T22:30:00Z,30.2513,-88.0778,-1.72,24.96,2 
DISL,ioos:station:DISL:DISL:1,2012-04-02T23:00:00Z,30.2513,-88.0778,-1.72,25.45,2 
DISL,ioos:station:DISL:DISL:1,2012-04-02T23:30:00Z,30.2513,-88.0778,-1.72,26.69,2 
DISL,ioos:station:DISL:DISL:1,2012-04-03T00:00:00Z,30.2513,-88.0778,-1.72,26.85,2 
DISL,ioos:station:DISL:DISL:1,2012-04-03T00:30:00Z,30.2513,-88.0778,-1.72,26.84,2 
DISL,ioos:station:DISL:DISL:1,2012-04-03T01:00:00Z,30.2513,-88.0778,-1.72,26.76,2 
DISL,ioos:station:DISL:DISL:1,2012-04-03T01:30:00Z,30.2513,-88.0778,-1.72,26.7,2 
DISL,ioos:station:DISL:DISL:1,2012-04-03T02:00:00Z,30.2513,-88.0778,-1.72,26.62,2 
DISL,ioos:station:DISL:DISL:1,2012-04-03T02:30:00Z,30.2513,-88.0778,-1.72,26.05,2 
DISL,ioos:station:DISL:DISL:1,2012-04-03T03:00:00Z,30.2513,-88.0778,-1.72,26.17,2 
DISL,ioos:station:DISL:DISL:1,2012-04-03T03:30:00Z,30.2513,-88.0778,-1.72,26.01,2 
DISL,ioos:station:DISL:DISL:1,2012-04-03T04:00:00Z,30.2513,-88.0778,-1.72,26.34,2 
DISL,ioos:station:DISL:DISL:1,2012-04-03T04:30:00Z,30.2513,-88.0778,-1.72,26.21,2 
DISL,ioos:station:DISL:DISL:1,2012-04-03T05:00:00Z,30.2513,-88.0778,-1.72,24.92,2 
DISL,ioos:station:DISL:DISL:1,2012-04-03T05:30:00Z,30.2513,-88.0778,-1.72,24.7,2 
DISL,ioos:station:DISL:DISL:1,2012-04-03T06:00:00Z,30.2513,-88.0778,-1.72,24.63,2 
DISL,ioos:station:DISL:DISL:1,2012-04-03T06:30:00Z,30.2513,-88.0778,-1.72,24.51,2 
DISL,ioos:station:DISL:DISL:1,2012-04-03T07:00:00Z,30.2513,-88.0778,-1.72,24.49,2 
DISL,ioos:station:DISL:DISL:1,2012-04-03T07:30:00Z,30.2513,-88.0778,-1.72,24.21,2 
DISL,ioos:station:DISL:DISL:1,2012-04-03T08:00:00Z,30.2513,-88.0778,-1.72,24.15,2 
DISL,ioos:station:DISL:DISL:1,2012-04-03T08:30:00Z,30.2513,-88.0778,-1.72,24.37,2 
DISL,ioos:station:DISL:DISL:1,2012-04-03T09:00:00Z,30.2513,-88.0778,-1.72,23.77,2 
DISL,ioos:station:DISL:DISL:1,2012-04-03T09:30:00Z,30.2513,-88.0778,-1.72,23.65,2 
DISL,ioos:station:DISL:DISL:1,2012-04-03T10:00:00Z,30.2513,-88.0778,-1.72,23.76,2 
DISL,ioos:station:DISL:DISL:1,2012-04-03T10:30:00Z,30.2513,-88.0778,-1.72,23.87,2 
DISL,ioos:station:DISL:DISL:1,2012-04-03T11:00:00Z,30.2513,-88.0778,-1.72,23.87,2 
DISL,ioos:station:DISL:DISL:1,2012-04-03T11:30:00Z,30.2513,-88.0778,-1.72,23.61,2 
DISL,ioos:station:DISL:DISL:1,2012-04-03T12:00:00Z,30.2513,-88.0778,-1.72,23.56,2 
DISL,ioos:station:DISL:DISL:1,2012-04-03T12:30:00Z,30.2513,-88.0778,-1.72,23.75,2 
DISL,ioos:station:DISL:DISL:1,2012-04-03T13:00:00Z,30.2513,-88.0778,-1.72,23.96,2 
DISL,ioos:station:DISL:DISL:1,2012-04-03T13:30:00Z,30.2513,-88.0778,-1.72,23.98,2 
DISL,ioos:station:DISL:DISL:1,2012-04-03T14:00:00Z,30.2513,-88.0778,-1.72,23.95,2 
DISL,ioos:station:DISL:DISL:1,2012-04-03T14:30:00Z,30.2513,-88.0778,-1.72,23.97,2 
DISL,ioos:station:DISL:DISL:1,2012-04-03T15:00:00Z,30.2513,-88.0778,-1.72,23.96,2 
DISL,ioos:station:DISL:DISL:1,2012-04-03T15:30:00Z,30.2513,-88.0778,-1.72,23.78,2 
DISL,ioos:station:DISL:DISL:1,2012-04-03T16:00:00Z,30.2513,-88.0778,-1.72,23.8,2 
DISL,ioos:station:DISL:DISL:1,2012-04-03T16:30:00Z,30.2513,-88.0778,-1.72,23.93,2 
DISL,ioos:station:DISL:DISL:1,2012-04-03T17:00:00Z,30.2513,-88.0778,-1.72,24.09,2 
DISL,ioos:station:DISL:DISL:1,2012-04-03T17:30:00Z,30.2513,-88.0778,-1.72,24.24,2 
DISL,ioos:station:DISL:DISL:1,2012-04-03T18:00:00Z,30.2513,-88.0778,-1.72,24.51,2 
DISL,ioos:station:DISL:DISL:1,2012-04-03T18:30:00Z,30.2513,-88.0778,-1.72,24.65,2 
DISL,ioos:station:DISL:DISL:1,2012-04-03T19:00:00Z,30.2513,-88.0778,-1.72,25.06,2 
DISL,ioos:station:DISL:DISL:1,2012-04-03T19:30:00Z,30.2513,-88.0778,-1.72,25.08,2 
DISL,ioos:station:DISL:DISL:1,2012-04-03T20:00:00Z,30.2513,-88.0778,-1.72,25.39,2 
DISL,ioos:station:DISL:DISL:1,2012-04-03T20:30:00Z,30.2513,-88.0778,-1.72,25.11,2 
DISL,ioos:station:DISL:DISL:1,2012-04-03T21:00:00Z,30.2513,-88.0778,-1.72,24.79,2 
DISL,ioos:station:DISL:DISL:1,2012-04-03T21:30:00Z,30.2513,-88.0778,-1.72,24.79,2 
DISL,ioos:station:DISL:DISL:1,2012-04-03T22:00:00Z,30.2513,-88.0778,-1.72,24.86,2 
DISL,ioos:station:DISL:DISL:1,2012-04-03T22:30:00Z,30.2513,-88.0778,-1.72,25.02,2 
DISL,ioos:station:DISL:DISL:1,2012-04-03T23:00:00Z,30.2513,-88.0778,-1.72,25.14,2 
DISL,ioos:station:DISL:DISL:1,2012-04-03T23:30:00Z,30.2513,-88.0778,-1.72,25.11,2 
DISL,ioos:station:DISL:DISL:1,2012-04-04T00:00:00Z,30.2513,-88.0778,-1.72,25.05,2 
DISL,ioos:station:DISL:DISL:1,2012-04-04T00:30:00Z,30.2513,-88.0778,-1.72,24.58,2 
DISL,ioos:station:DISL:DISL:1,2012-04-04T01:00:00Z,30.2513,-88.0778,-1.72,24.69,2 
DISL,ioos:station:DISL:DISL:1,2012-04-04T01:30:00Z,30.2513,-88.0778,-1.72,24.53,2 
DISL,ioos:station:DISL:DISL:1,2012-04-04T02:00:00Z,30.2513,-88.0778,-1.72,24.67,2 
DISL,ioos:station:DISL:DISL:1,2012-04-04T02:30:00Z,30.2513,-88.0778,-1.72,24.63,2 
DISL,ioos:station:DISL:DISL:1,2012-04-04T03:00:00Z,30.2513,-88.0778,-1.72,24.58,2 
DISL,ioos:station:DISL:DISL:1,2012-04-04T03:30:00Z,30.2513,-88.0778,-1.72,24.5,2 
DISL,ioos:station:DISL:DISL:1,2012-04-04T04:00:00Z,30.2513,-88.0778,-1.72,24.44,2 
DISL,ioos:station:DISL:DISL:1,2012-04-04T04:30:00Z,30.2513,-88.0778,-1.72,24.37,2 
DISL,ioos:station:DISL:DISL:1,2012-04-04T05:00:00Z,30.2513,-88.0778,-1.72,24.43,2 
DISL,ioos:station:DISL:DISL:1,2012-04-04T05:30:00Z,30.2513,-88.0778,-1.72,24.36,2 
DISL,ioos:station:DISL:DISL:1,2012-04-04T06:00:00Z,30.2513,-88.0778,-1.72,24.34,2 
DISL,ioos:station:DISL:DISL:1,2012-04-04T06:30:00Z,30.2513,-88.0778,-1.72,24.21,2 
DISL,ioos:station:DISL:DISL:1,2012-04-04T07:00:00Z,30.2513,-88.0778,-1.72,24.18,2 
DISL,ioos:station:DISL:DISL:1,2012-04-04T07:30:00Z,30.2513,-88.0778,-1.72,24.12,2 
DISL,ioos:station:DISL:DISL:1,2012-04-04T08:00:00Z,30.2513,-88.0778,-1.72,23.88,2 
DISL,ioos:station:DISL:DISL:1,2012-04-04T08:30:00Z,30.2513,-88.0778,-1.72,23.68,2 
DISL,ioos:station:DISL:DISL:1,2012-04-04T09:00:00Z,30.2513,-88.0778,-1.72,23.71,2 
DISL,ioos:station:DISL:DISL:1,2012-04-04T09:30:00Z,30.2513,-88.0778,-1.72,23.84,2 
DISL,ioos:station:DISL:DISL:1,2012-04-04T10:00:00Z,30.2513,-88.0778,-1.72,24.12,2 
DISL,ioos:station:DISL:DISL:1,2012-04-04T10:30:00Z,30.2513,-88.0778,-1.72,23.19,2 
DISL,ioos:station:DISL:DISL:1,2012-04-04T11:00:00Z,30.2513,-88.0778,-1.72,23.17,2 
DISL,ioos:station:DISL:DISL:1,2012-04-04T11:30:00Z,30.2513,-88.0778,-1.72,23.07,2 
DISL,ioos:station:DISL:DISL:1,2012-04-04T12:00:00Z,30.2513,-88.0778,-1.72,23.05,2 
DISL,ioos:station:DISL:DISL:1,2012-04-04T12:30:00Z,30.2513,-88.0778,-1.72,23.03,2 
DISL,ioos:station:DISL:DISL:1,2012-04-04T13:00:00Z,30.2513,-88.0778,-1.72,23.05,2 
DISL,ioos:station:DISL:DISL:1,2012-04-04T13:30:00Z,30.2513,-88.0778,-1.72,23.06,2 
DISL,ioos:station:DISL:DISL:1,2012-04-04T14:00:00Z,30.2513,-88.0778,-1.72,22.96,2 
DISL,ioos:station:DISL:DISL:1,2012-04-04T14:30:00Z,30.2513,-88.0778,-1.72,22.92,2 
DISL,ioos:station:DISL:DISL:1,2012-04-04T15:00:00Z,30.2513,-88.0778,-1.72,22.89,2 
DISL,ioos:station:DISL:DISL:1,2012-04-04T15:30:00Z,30.2513,-88.0778,-1.72,23.15,2 
DISL,ioos:station:DISL:DISL:1,2012-04-04T16:00:00Z,30.2513,-88.0778,-1.72,23.2,2 
DISL,ioos:station:DISL:DISL:1,2012-04-04T16:30:00Z,30.2513,-88.0778,-1.72,23.13,2 
DISL,ioos:station:DISL:DISL:1,2012-04-04T17:00:00Z,30.2513,-88.0778,-1.72,23.18,2 
DISL,ioos:station:DISL:DISL:1,2012-04-04T17:30:00Z,30.2513,-88.0778,-1.72,23.11,2 
DISL,ioos:station:DISL:DISL:1,2012-04-04T18:00:00Z,30.2513,-88.0778,-1.72,22.47,2 
DISL,ioos:station:DISL:DISL:1,2012-04-04T18:30:00Z,30.2513,-88.0778,-1.72,22.55,2 
DISL,ioos:station:DISL:DISL:1,2012-04-04T19:00:00Z,30.2513,-88.0778,-1.72,22.56,2 
DISL,ioos:station:DISL:DISL:1,2012-04-04T19:30:00Z,30.2513,-88.0778,-1.72,22.73,2 
DISL,ioos:station:DISL:DISL:1,2012-04-04T20:00:00Z,30.2513,-88.0778,-1.72,22.74,2 
DISL,ioos:station:DISL:DISL:1,2012-04-04T20:30:00Z,30.2513,-88.0778,-1.72,22.82,2 
DISL,ioos:station:DISL:DISL:1,2012-04-04T21:00:00Z,30.2513,-88.0778,-1.72,22.84,2 
DISL,ioos:station:DISL:DISL:1,2012-04-04T21:30:00Z,30.2513,-88.0778,-1.72,22.81,2 
DISL,ioos:station:DISL:DISL:1,2012-04-04T22:00:00Z,30.2513,-88.0778,-1.72,22.88,2 
DISL,ioos:station:DISL:DISL:1,2012-04-04T22:30:00Z,30.2513,-88.0778,-1.72,23.03,2 
DISL,ioos:station:DISL:DISL:1,2012-04-04T23:00:00Z,30.2513,-88.0778,-1.72,23.13,2 
DISL,ioos:station:DISL:DISL:1,2012-04-04T23:30:00Z,30.2513,-88.0778,-1.72,23.11,2 
DISL,ioos:station:DISL:DISL:1,2012-04-05T00:00:00Z,30.2513,-88.0778,-1.72,22.89,2 
DISL,ioos:station:DISL:DISL:1,2012-04-05T00:30:00Z,30.2513,-88.0778,-1.72,22.84,2 
DISL,ioos:station:DISL:DISL:1,2012-04-05T01:00:00Z,30.2513,-88.0778,-1.72,22.75,2 
DISL,ioos:station:DISL:DISL:1,2012-04-05T01:30:00Z,30.2513,-88.0778,-1.72,22.92,2 
DISL,ioos:station:DISL:DISL:1,2012-04-05T02:00:00Z,30.2513,-88.0778,-1.72,22.91,2 
DISL,ioos:station:DISL:DISL:1,2012-04-05T02:30:00Z,30.2513,-88.0778,-1.72,22.28,2 
DISL,ioos:station:DISL:DISL:1,2012-04-05T03:00:00Z,30.2513,-88.0778,-1.72,22.74,2 
DISL,ioos:station:DISL:DISL:1,2012-04-05T03:30:00Z,30.2513,-88.0778,-1.72,22.65,2 
DISL,ioos:station:DISL:DISL:1,2012-04-05T04:00:00Z,30.2513,-88.0778,-1.72,22.69,2 
DISL,ioos:station:DISL:DISL:1,2012-04-05T04:30:00Z,30.2513,-88.0778,-1.72,23.04,2 
DISL,ioos:station:DISL:DISL:1,2012-04-05T05:00:00Z,30.2513,-88.0778,-1.72,23.08,2 
DISL,ioos:station:DISL:DISL:1,2012-04-05T05:30:00Z,30.2513,-88.0778,-1.72,23.1,2 
DISL,ioos:station:DISL:DISL:1,2012-04-05T06:00:00Z,30.2513,-88.0778,-1.72,23.04,2 
DISL,ioos:station:DISL:DISL:1,2012-04-05T06:30:00Z,30.2513,-88.0778,-1.72,22.82,2 
DISL,ioos:station:DISL:DISL:1,2012-04-05T07:00:00Z,30.2513,-88.0778,-1.72,22.79,2 
DISL,ioos:station:DISL:DISL:1,2012-04-05T07:30:00Z,30.2513,-88.0778,-1.72,22.42,2 
DISL,ioos:station:DISL:DISL:1,2012-04-05T08:00:00Z,30.2513,-88.0778,-1.72,22.49,2 
DISL,ioos:station:DISL:DISL:1,2012-04-05T08:30:00Z,30.2513,-88.0778,-1.72,22.84,2 
DISL,ioos:station:DISL:DISL:1,2012-04-05T09:00:00Z,30.2513,-88.0778,-1.72,22.75,2 
DISL,ioos:station:DISL:DISL:1,2012-04-05T09:30:00Z,30.2513,-88.0778,-1.72,22.98,2 
DISL,ioos:station:DISL:DISL:1,2012-04-05T10:00:00Z,30.2513,-88.0778,-1.72,23.03,2 
DISL,ioos:station:DISL:DISL:1,2012-04-05T10:30:00Z,30.2513,-88.0778,-1.72,22.98,2 
DISL,ioos:station:DISL:DISL:1,2012-04-05T11:00:00Z,30.2513,-88.0778,-1.72,22.87,2 
DISL,ioos:station:DISL:DISL:1,2012-04-05T11:30:00Z,30.2513,-88.0778,-1.72,22.35,2 
DISL,ioos:station:DISL:DISL:1,2012-04-05T12:00:00Z,30.2513,-88.0778,-1.72,22.43,2 
DISL,ioos:station:DISL:DISL:1,2012-04-05T12:30:00Z,30.2513,-88.0778,-1.72,22.34,2 
DISL,ioos:station:DISL:DISL:1,2012-04-05T13:00:00Z,30.2513,-88.0778,-1.72,22.3,2 
DISL,ioos:station:DISL:DISL:1,2012-04-05T13:30:00Z,30.2513,-88.0778,-1.72,22.24,2 
DISL,ioos:station:DISL:DISL:1,2012-04-05T14:00:00Z,30.2513,-88.0778,-1.72,22.23,2 
DISL,ioos:station:DISL:DISL:1,2012-04-05T14:30:00Z,30.2513,-88.0778,-1.72,22.5,2 
DISL,ioos:station:DISL:DISL:1,2012-04-05T15:00:00Z,30.2513,-88.0778,-1.72,22.24,2 
DISL,ioos:station:DISL:DISL:1,2012-04-05T15:30:00Z,30.2513,-88.0778,-1.72,22.53,2 
DISL,ioos:station:DISL:DISL:1,2012-04-05T16:00:00Z,30.2513,-88.0778,-1.72,22.47,2 
DISL,ioos:station:DISL:DISL:1,2012-04-05T16:30:00Z,30.2513,-88.0778,-1.72,22.55,2 
DISL,ioos:station:DISL:DISL:1,2012-04-05T17:00:00Z,30.2513,-88.0778,-1.72,22.39,2 
DISL,ioos:station:DISL:DISL:1,2012-04-05T17:30:00Z,30.2513,-88.0778,-1.72,22.51,2 
DISL,ioos:station:DISL:DISL:1,2012-04-05T18:00:00Z,30.2513,-88.0778,-1.72,22.64,2 
DISL,ioos:station:DISL:DISL:1,2012-04-05T18:30:00Z,30.2513,-88.0778,-1.72,23.09,2 
DISL,ioos:station:DISL:DISL:1,2012-04-05T19:00:00Z,30.2513,-88.0778,-1.72,23.27,2 
DISL,ioos:station:DISL:DISL:1,2012-04-05T19:30:00Z,30.2513,-88.0778,-1.72,23.54,2 
DISL,ioos:station:DISL:DISL:1,2012-04-05T20:00:00Z,30.2513,-88.0778,-1.72,24.06,2 
DISL,ioos:station:DISL:DISL:1,2012-04-05T20:30:00Z,30.2513,-88.0778,-1.72,24.24,2 
DISL,ioos:station:DISL:DISL:1,2012-04-05T21:00:00Z,30.2513,-88.0778,-1.72,24.37,2 
DISL,ioos:station:DISL:DISL:1,2012-04-05T21:30:00Z,30.2513,-88.0778,-1.72,24.53,2 
DISL,ioos:station:DISL:DISL:1,2012-04-05T22:00:00Z,30.2513,-88.0778,-1.72,24.81,2 
DISL,ioos:station:DISL:DISL:1,2012-04-05T22:30:00Z,30.2513,-88.0778,-1.72,24.62,2 
DISL,ioos:station:DISL:DISL:1,2012-04-05T23:00:00Z,30.2513,-88.0778,-1.72,24.26,2 
DISL,ioos:station:DISL:DISL:1,2012-04-05T23:30:00Z,30.2513,-88.0778,-1.72,24.17,2 
DISL,ioos:station:DISL:DISL:1,2012-04-06T00:00:00Z,30.2513,-88.0778,-1.72,24.02,2 
DISL,ioos:station:DISL:DISL:1,2012-04-06T00:30:00Z,30.2513,-88.0778,-1.72,23.99,2 
DISL,ioos:station:DISL:DISL:1,2012-04-06T01:00:00Z,30.2513,-88.0778,-1.72,23.92,2 
DISL,ioos:station:DISL:DISL:1,2012-04-06T01:30:00Z,30.2513,-88.0778,-1.72,23.92,2 
DISL,ioos:station:DISL:DISL:1,2012-04-06T02:00:00Z,30.2513,-88.0778,-1.72,24.03,2 
DISL,ioos:station:DISL:DISL:1,2012-04-06T02:30:00Z,30.2513,-88.0778,-1.72,23.81,2 
DISL,ioos:station:DISL:DISL:1,2012-04-06T03:00:00Z,30.2513,-88.0778,-1.72,23.87,2 
DISL,ioos:station:DISL:DISL:1,2012-04-06T03:30:00Z,30.2513,-88.0778,-1.72,23.79,2 
DISL,ioos:station:DISL:DISL:1,2012-04-06T04:00:00Z,30.2513,-88.0778,-1.72,23.55,2 
DISL,ioos:station:DISL:DISL:1,2012-04-06T04:30:00Z,30.2513,-88.0778,-1.72,23.51,2 
DISL,ioos:station:DISL:DISL:1,2012-04-06T05:00:00Z,30.2513,-88.0778,-1.72,23.56,2 
DISL,ioos:station:DISL:DISL:1,2012-04-06T05:30:00Z,30.2513,-88.0778,-1.72,23.62,2 
DISL,ioos:station:DISL:DISL:1,2012-04-06T06:00:00Z,30.2513,-88.0778,-1.72,23.62,2 
DISL,ioos:station:DISL:DISL:1,2012-04-06T06:30:00Z,30.2513,-88.0778,-1.72,23.61,2 
DISL,ioos:station:DISL:DISL:1,2012-04-06T07:00:00Z,30.2513,-88.0778,-1.72,23.65,2 
DISL,ioos:station:DISL:DISL:1,2012-04-06T07:30:00Z,30.2513,-88.0778,-1.72,23.48,2 
DISL,ioos:station:DISL:DISL:1,2012-04-06T08:00:00Z,30.2513,-88.0778,-1.72,22.99,2 
DISL,ioos:station:DISL:DISL:1,2012-04-06T08:30:00Z,30.2513,-88.0778,-1.72,22.61,2 
DISL,ioos:station:DISL:DISL:1,2012-04-06T09:00:00Z,30.2513,-88.0778,-1.72,22.63,2 
DISL,ioos:station:DISL:DISL:1,2012-04-06T09:30:00Z,30.2513,-88.0778,-1.72,22.62,2 
DISL,ioos:station:DISL:DISL:1,2012-04-06T10:00:00Z,30.2513,-88.0778,-1.72,22.55,2 
DISL,ioos:station:DISL:DISL:1,2012-04-06T10:30:00Z,30.2513,-88.0778,-1.72,22.54,2 
DISL,ioos:station:DISL:DISL:1,2012-04-06T11:00:00Z,30.2513,-88.0778,-1.72,22.31,2 
DISL,ioos:station:DISL:DISL:1,2012-04-06T11:30:00Z,30.2513,-88.0778,-1.72,22.2,2 
DISL,ioos:station:DISL:DISL:1,2012-04-06T12:00:00Z,30.2513,-88.0778,-1.72,22.15,2 
DISL,ioos:station:DISL:DISL:1,2012-04-06T12:30:00Z,30.2513,-88.0778,-1.72,22.61,2 
DISL,ioos:station:DISL:DISL:1,2012-04-06T13:00:00Z,30.2513,-88.0778,-1.72,22.82,2 
DISL,ioos:station:DISL:DISL:1,2012-04-06T13:30:00Z,30.2513,-88.0778,-1.72,22.86,2 
DISL,ioos:station:DISL:DISL:1,2012-04-06T14:00:00Z,30.2513,-88.0778,-1.72,22.56,2 
DISL,ioos:station:DISL:DISL:1,2012-04-06T14:30:00Z,30.2513,-88.0778,-1.72,22.23,2 
DISL,ioos:station:DISL:DISL:1,2012-04-06T15:00:00Z,30.2513,-88.0778,-1.72,21.82,2 
DISL,ioos:station:DISL:DISL:1,2012-04-06T15:30:00Z,30.2513,-88.0778,-1.72,21.83,2 
DISL,ioos:station:DISL:DISL:1,2012-04-06T16:00:00Z,30.2513,-88.0778,-1.72,21.8,2 
DISL,ioos:station:DISL:DISL:1,2012-04-06T16:30:00Z,30.2513,-88.0778,-1.72,21.91,2 
DISL,ioos:station:DISL:DISL:1,2012-04-06T17:00:00Z,30.2513,-88.0778,-1.72,22.04,2 
DISL,ioos:station:DISL:DISL:1,2012-04-06T17:30:00Z,30.2513,-88.0778,-1.72,22.14,2 
DISL,ioos:station:DISL:DISL:1,2012-04-06T18:00:00Z,30.2513,-88.0778,-1.72,22.31,2 
DISL,ioos:station:DISL:DISL:1,2012-04-06T18:30:00Z,30.2513,-88.0778,-1.72,22.51,2 
DISL,ioos:station:DISL:DISL:1,2012-04-06T19:00:00Z,30.2513,-88.0778,-1.72,22.73,2 
DISL,ioos:station:DISL:DISL:1,2012-04-06T19:30:00Z,30.2513,-88.0778,-1.72,22.88,2 
DISL,ioos:station:DISL:DISL:1,2012-04-06T20:00:00Z,30.2513,-88.0778,-1.72,23.01,2 
DISL,ioos:station:DISL:DISL:1,2012-04-06T20:30:00Z,30.2513,-88.0778,-1.72,23.38,2 
DISL,ioos:station:DISL:DISL:1,2012-04-06T21:00:00Z,30.2513,-88.0778,-1.72,23.54,2 
DISL,ioos:station:DISL:DISL:1,2012-04-06T21:30:00Z,30.2513,-88.0778,-1.72,23.72,2 
DISL,ioos:station:DISL:DISL:1,2012-04-06T22:00:00Z,30.2513,-88.0778,-1.72,23.72,2 
DISL,ioos:station:DISL:DISL:1,2012-04-06T22:30:00Z,30.2513,-88.0778,-1.72,23.51,2 
DISL,ioos:station:DISL:DISL:1,2012-04-06T23:00:00Z,30.2513,-88.0778,-1.72,23.38,2 
DISL,ioos:station:DISL:DISL:1,2012-04-06T23:30:00Z,30.2513,-88.0778,-1.72,23.29,2 